Weather Roundup
Issued by NWS

Home | Current Version | Previous Version | Text Only | Print | Product List | Glossary On
Versions: 1 2 3 4 5 6 7 8 9 10 11 12 13 14 15 16 17 18 19 20 21 22 23 24 25 26 27 28 29 30 31 32 33 34 35 36 37 38 39 40 41 42 43 44 45 46 47 48 49 50
000
NZUS93 KARX 190759
HRRWXR

CURRENT HOURLY OBSERVATIONS ACROSS
MUCH OF THE UPPER MISSISSIPPI VALLEY
NATIONAL WEATHER SERVICE LA CROSSE WI
300 AM CDT FRI SEP 19 2014


...SOUTHEAST MINNESOTA...


CITY           SKY/WX    TMP DP  RH WIND       PRES   REMARKS
ROCHESTER      CLEAR     55  51  86 S13       30.04F
ROCHESTER/MAYO FAIR      57  49  77 SE9G16    30.03F
WINONA         PTCLDY    55  52  88 SE5       30.06S
AUSTIN         PTCLDY    54  52  94 S8        30.02F
ALBERT LEA     PTCLDY    57  54  88 S12       30.01S
DODGE CENTER   CLEAR     55  52  88 S12       30.02F
PRESTON        CLEAR     54  53  97 S10       30.06F
OWATONNA       CLEAR     57  52  82 S10G16    30.00S
FARIBAULT      PTCLDY    61  52  72 S9        29.99F
$$

...ELSEWHERE IN MINNESOTA...


CITY           SKY/WX    TMP DP  RH WIND       PRES   REMARKS
MINNEAPOLIS    MOCLDY    59  52  77 SE9       29.98F
INTNL FALLS    CLOUDY    56  51  84 S8        29.77F
DULUTH         CLOUDY    53  50  89 S10       29.94F FOG
RED WING       PTCLDY    59  54  82 SE7       30.01S
REDWOOD FALLS  CLOUDY    60  55  83 S13       29.90F
MANKATO        MOCLDY    57  48  72 S9        29.96F
WORTHINGTON    MOCLDY    59  55  88 S17G24    29.93F
FAIRMONT       MOCLDY    59  48  67 S13       29.96F
$$

...SOUTHWEST WISCONSIN...


CITY           SKY/WX    TMP DP  RH WIND       PRES   REMARKS
LA CROSSE      PTCLDY    58  53  84 S10       30.07F
PRAIRIE DU CHI CLEAR     54  51  90 CALM      30.09F
BOSCOBEL       CLEAR     51  49  92 CALM      30.11F FOG
LONE ROCK      NOT AVBL
PLATTEVILLE    CLEAR     51  50  95 CALM      30.13S
FORT MC COY    CLEAR     55  52  88 S7        30.10S
VIROQUA        FAIR      53  53 100 SE7       30.10F
WIS DELLS      FOG       47  46  95 CALM      30.13R VSB 1/2
$$

...ELSEWHERE IN WISCONSIN...


CITY           SKY/WX    TMP DP  RH WIND       PRES   REMARKS
MILWAUKEE      PTCLDY    52  50  93 CALM      30.15F
MADISON        CLOUDY    52  51  97 SE6       30.15R FOG
GREEN BAY      CLEAR     43  42  97 CALM      30.14F
EAU CLAIRE     NOT AVBL
BLACK RVR FLS  PTSUNNY   42  42 100 CALM      30.09S FOG
MEDFORD        CLOUDY    49  49  99 S8        30.09F FOG
WAUSAU         CLOUDY    51  50  96 SE7       30.11S FOG
WIS RAPIDS     CLOUDY    51  50  96 S5        30.13S FOG
MARSHFIELD     FOG       51  50  96 S8        30.10F VSB 1/2
RICE LAKE      MOCLDY    51  50  94 SE9       30.04F FOG
$$

...NORTHEAST IOWA...


CITY           SKY/WX    TMP DP  RH WIND       PRES   REMARKS
WATERLOO       CLEAR     55  50  83 SE10      30.06S
DUBUQUE        CLEAR     53  52  96 SE10      30.11S FOG
DECORAH        CLEAR     54  52  94 SE7G14    30.07F
MASON CITY     PTCLDY    54  52  93 SE10      30.03F
CHARLES CITY   PTCLDY    55  52  88 SE10      30.06F
OELWEIN        CLEAR     54  50  87 SE8       30.09S
$$

...ELSEWHERE IN IOWA...


CITY           SKY/WX    TMP DP  RH WIND       PRES   REMARKS
DES MOINES     PTCLDY    58  54  86 S8        30.03F
IOWA CITY      CLEAR     52  49  89 SE3       30.10S
FORT DODGE     MOCLDY    59  54  82 S9        30.02S
MARSHALLTOWN   PTCLDY    54  51  90 SE7       30.04F
CEDAR RAPIDS   CLEAR     54  50  86 SE6       30.08S
$$

...NORTHERN ILLINOIS...


CITY           SKY/WX    TMP DP  RH WIND       PRES   REMARKS
CHICAGO-OHARE  CLEAR     55  52  89 E5        30.14F
DUPAGE         CLEAR     56  54  93 E5        30.13F FOG
CHICAGO-MIDWAY CLEAR     60  53  77 SE7       30.14F
MOLINE         CLEAR     52  49  89 E7        30.11S FOG
ROCKFORD       FOG       55  54  96 SE9       30.15F VSB 3/4
STERLING       CLEAR     46  43  87 CALM      30.12F
PEORIA         CLEAR     55  51  86 E6        30.11F
$$

NOTE: "FAIR" INDICATES FEW OR NO CLOUDS BELOW 12,000 FEET WITH NO
SIGNIFICANT WEATHER AND/OR OBSTRUCTIONS TO VISIBILITY. WIND
SPEEDS ARE IN MILES-PER-HOUR.



USA.gov is the U.S. government's official web portal to all federal, state and local government web resources and services.